Location: Marstown
(39.5056°N, 77.0820°W)
Time: 19:41:31
(UTC-05:00)

Envisat - Visible Passes

Search period start: 20 January 2018 00:00
Search period end: 30 January 2018 00:00
Orbit: 764 x 766 km, 98.2° (Epoch: 20 January)

Date Brightness Start Highest point End Pass type
(mag) Time Alt. Az. Time Alt. Az. Time Alt. Az.
20 Jan 4.7 18:48:34 17° NNE 18:48:34 17° NNE 18:50:03 10° NNE visible
20 Jan 5.5 20:28:45 14° NNW 20:28:45 14° NNW 20:29:33 10° NNW visible
21 Jan 4.9 18:11:10 10° NE 18:11:10 10° NE 18:11:14 10° NE visible
21 Jan 4.7 19:51:21 22° NNW 19:51:21 22° NNW 19:53:08 10° NNW visible
22 Jan 4.3 19:13:56 24° NNE 19:13:56 24° NNE 19:16:10 10° N visible
22 Jan 5.8 20:54:07 11° NW 20:54:07 11° NW 20:54:29 10° NW visible
23 Jan 4.5 18:36:31 17° NE 18:36:31 17° NE 18:38:34 10° NNE visible
23 Jan 4.9 20:16:42 22° NNW 20:16:42 22° NNW 20:18:35 10° NNW visible
24 Jan 4.1 19:39:17 32° N 19:39:17 32° N 19:41:59 10° N visible
25 Jan 4.0 19:01:50 27° NE 19:01:50 27° NE 19:04:52 10° N visible
25 Jan 5.4 20:42:01 18° NW 20:42:01 18° NW 20:43:41 10° NW visible
26 Jan 4.5 18:24:23 15° ENE 18:24:23 15° ENE 18:26:57 10° NNE visible
26 Jan 4.2 20:04:34 35° NNW 20:04:34 35° NNW 20:07:32 10° NNW visible
27 Jan 3.5 19:27:07 43° NNE 19:27:07 43° NNE 19:30:48 10° N visible
27 Jan 5.8 21:07:18 12° WNW 21:07:18 12° WNW 21:08:10 10° NW visible
28 Jan 3.9 18:49:40 26° ENE 18:49:40 26° ENE 18:53:29 10° NNE visible
28 Jan 4.8 20:29:51 28° WNW 20:29:51 28° WNW 20:32:49 10° NNW visible
29 Jan 4.7 18:12:11 12° ENE 18:13:03 12° ENE 18:15:03 10° NE visible
29 Jan 3.3 19:52:23 57° NNW 19:52:23 57° NNW 19:56:27 10° NNW visible
